Year,Month,Day,Hour,Minute,Value (Times are PST for temperature in C)
2024,04,24,15,17,12.80
2024,04,24,15,18,12.80
2024,04,24,15,19,12.80
2024,04,24,15,20,12.80
2024,04,24,15,21,12.80
2024,04,24,15,22,12.80
2024,04,24,15,23,12.80
2024,04,24,15,24,12.70
2024,04,24,15,25,12.70
2024,04,24,15,26,12.70
2024,04,24,15,27,12.70
2024,04,24,15,28,12.70
2024,04,24,15,29,12.70
2024,04,24,15,30,12.70
2024,04,24,15,31,12.70
2024,04,24,15,32,12.70
2024,04,24,15,33,12.70
2024,04,24,15,34,12.70
2024,04,24,15,35,12.70
2024,04,24,15,36,12.80
2024,04,24,15,37,12.80
2024,04,24,15,38,12.80
2024,04,24,15,39,12.80
2024,04,24,15,40,12.80
2024,04,24,15,41,12.80
2024,04,24,15,42,12.80
2024,04,24,15,43,12.80
2024,04,24,15,44,12.80
2024,04,24,15,45,12.80
2024,04,24,15,46,12.80
2024,04,24,15,47,12.80
2024,04,24,15,48,12.80
2024,04,24,15,49,12.80
2024,04,24,15,50,12.80
2024,04,24,15,51,12.80
2024,04,24,15,52,12.80
2024,04,24,15,53,12.80
2024,04,24,15,54,12.80
2024,04,24,15,55,12.80
2024,04,24,15,56,12.90
2024,04,24,15,57,12.90
2024,04,24,15,58,12.90
2024,04,24,15,59,13.00
2024,04,24,16,00,13.00
2024,04,24,16,01,13.00
2024,04,24,16,02,13.00
2024,04,24,16,03,13.10
2024,04,24,16,04,13.00
2024,04,24,16,05,13.00
2024,04,24,16,06,13.00
2024,04,24,16,07,13.00
2024,04,24,16,08,13.00
2024,04,24,16,09,13.00
2024,04,24,16,10,13.00
2024,04,24,16,11,13.00
2024,04,24,16,12,13.00
2024,04,24,16,13,13.00
2024,04,24,16,14,13.10
2024,04,24,16,15,13.10
2024,04,24,16,16,13.10
2024,04,24,16,17,13.00
2024,04,24,16,18,13.00
2024,04,24,16,19,13.00
2024,04,24,16,20,13.00
2024,04,24,16,21,13.00
2024,04,24,16,22,13.00
2024,04,24,16,23,13.00
2024,04,24,16,24,13.00
2024,04,24,16,25,12.90
2024,04,24,16,26,13.00
2024,04,24,16,27,13.00
2024,04,24,16,28,12.90
2024,04,24,16,29,13.00
2024,04,24,16,30,13.00
2024,04,24,16,31,13.00
2024,04,24,16,32,13.00
2024,04,24,16,33,13.10
2024,04,24,16,34,13.10
2024,04,24,16,35,13.20
2024,04,24,16,36,13.20
2024,04,24,16,37,13.30
2024,04,24,16,38,13.30
2024,04,24,16,39,13.30
2024,04,24,16,40,13.30
2024,04,24,16,41,13.40
2024,04,24,16,42,13.40
2024,04,24,16,43,13.40
2024,04,24,16,44,13.40
2024,04,24,16,45,13.40
2024,04,24,16,46,13.40
2024,04,24,16,47,13.30
2024,04,24,16,48,13.30
2024,04,24,16,49,13.20
2024,04,24,16,50,13.20
2024,04,24,16,51,13.10
2024,04,24,16,52,13.10
2024,04,24,16,53,13.10
2024,04,24,16,54,13.10
2024,04,24,16,55,13.10
2024,04,24,16,56,13.10
2024,04,24,16,57,13.10
2024,04,24,16,58,13.00
2024,04,24,16,59,13.00
2024,04,24,17,00,12.90
2024,04,24,17,01,12.90
2024,04,24,17,02,12.80
2024,04,24,17,03,12.80
2024,04,24,17,04,12.80
2024,04,24,17,05,12.80
2024,04,24,17,06,12.80
2024,04,24,17,07,12.80
2024,04,24,17,08,12.80
2024,04,24,17,09,12.80
2024,04,24,17,10,12.70
2024,04,24,17,11,12.70
2024,04,24,17,12,12.60
2024,04,24,17,13,12.60
2024,04,24,17,14,12.50
2024,04,24,17,15,12.50
2024,04,24,17,16,12.50
2024,04,24,17,17,12.50
2024,04,24,17,18,12.40
2024,04,24,17,19,12.40
2024,04,24,17,20,12.40
2024,04,24,17,21,12.40
2024,04,24,17,22,12.40
2024,04,24,17,23,12.40
2024,04,24,17,24,12.50
2024,04,24,17,25,12.50
2024,04,24,17,26,12.50
2024,04,24,17,27,12.50
2024,04,24,17,28,12.50
2024,04,24,17,29,12.50
2024,04,24,17,30,12.50
2024,04,24,17,31,12.50
2024,04,24,17,32,12.50
2024,04,24,17,33,12.50
2024,04,24,17,34,12.50
2024,04,24,17,35,12.50
2024,04,24,17,36,12.50
2024,04,24,17,37,12.50
2024,04,24,17,38,12.50
2024,04,24,17,39,12.50
2024,04,24,17,40,12.50
2024,04,24,17,41,12.50
2024,04,24,17,42,12.50
2024,04,24,17,43,12.50
2024,04,24,17,44,12.50
2024,04,24,17,45,12.50
2024,04,24,17,46,12.50
2024,04,24,17,47,12.50
2024,04,24,17,48,12.50
2024,04,24,17,49,12.50
2024,04,24,17,50,12.50
2024,04,24,17,51,12.50
2024,04,24,17,52,12.50
2024,04,24,17,53,12.50
